TimeCST,TemperatureF,Dew PointF,Humidity,Sea Level PressureIn,VisibilityMPH,Wind Direction,Wind SpeedMPH,Gust SpeedMPH,PrecipitationIn,Events,Conditions,WindDirDegrees,DateUTC
12:13 AM,28.4,26.6,93,29.95,10.0,SSE,9.2,-,N/A,,Mostly Cloudy,150,2012-12-01 06:13:00
12:33 AM,28.4,26.6,93,29.94,10.0,SE,6.9,16.1,N/A,,Mostly Cloudy,140,2012-12-01 06:33:00
12:53 AM,28.4,26.6,93,29.93,7.0,SSE,10.4,-,N/A,,Mostly Cloudy,150,2012-12-01 06:53:00
1:13 AM,28.4,26.6,93,29.92,7.0,SSE,8.1,17.3,N/A,,Mostly Cloudy,160,2012-12-01 07:13:00
1:33 AM,28.4,26.6,93,29.92,7.0,SSE,8.1,-,N/A,,Scattered Clouds,160,2012-12-01 07:33:00
1:53 AM,28.4,26.6,93,29.91,7.0,SSE,9.2,-,N/A,,Scattered Clouds,150,2012-12-01 07:53:00
2:14 AM,28.4,26.6,93,29.91,7.0,SSE,6.9,-,N/A,,Scattered Clouds,160,2012-12-01 08:14:00
2:33 AM,28.4,26.6,93,29.91,7.0,SSE,10.4,-,N/A,,Scattered Clouds,160,2012-12-01 08:33:00
2:53 AM,28.4,26.6,93,29.90,7.0,SSE,9.2,-,N/A,,Scattered Clouds,160,2012-12-01 08:53:00
3:33 AM,30.2,26.6,86,29.87,5.0,SSE,9.2,-,N/A,,Scattered Clouds,150,2012-12-01 09:33:00
3:53 AM,30.2,26.6,86,29.85,5.0,SE,11.5,18.4,N/A,,Scattered Clouds,140,2012-12-01 09:53:00
4:13 AM,30.2,28.4,93,29.85,5.0,SSE,9.2,-,N/A,,Scattered Clouds,160,2012-12-01 10:13:00
4:33 AM,30.2,28.4,93,29.83,5.0,SSE,10.4,16.1,N/A,,Scattered Clouds,150,2012-12-01 10:33:00
5:14 AM,30.2,28.4,93,29.80,4.0,SSE,12.7,18.4,N/A,,Mostly Cloudy,150,2012-12-01 11:14:00
5:33 AM,30.2,28.4,93,29.78,4.0,SSE,9.2,19.6,N/A,,Mostly Cloudy,160,2012-12-01 11:33:00
5:53 AM,30.2,28.4,93,29.78,4.0,SSE,16.1,23.0,N/A,,Mostly Cloudy,150,2012-12-01 11:53:00
6:13 AM,30.2,28.4,93,29.77,4.0,SSE,15.0,26.5,N/A,,Mostly Cloudy,160,2012-12-01 12:13:00
6:33 AM,32.0,30.2,93,29.76,4.0,SSE,18.4,23.0,N/A,,Scattered Clouds,160,2012-12-01 12:33:00
6:53 AM,32.0,30.2,93,29.76,4.0,SSE,15.0,21.9,N/A,,Scattered Clouds,160,2012-12-01 12:53:00
7:13 AM,32.0,30.2,93,29.75,4.0,SSE,12.7,21.9,N/A,,Scattered Clouds,160,2012-12-01 13:13:00
7:34 AM,32.0,30.2,93,29.75,4.0,SSE,13.8,18.4,N/A,,Scattered Clouds,160,2012-12-01 13:34:00
7:53 AM,32.0,30.2,93,29.74,4.0,SSE,8.1,17.3,N/A,,Scattered Clouds,160,2012-12-01 13:53:00
8:13 AM,32.0,30.2,93,29.75,2.5,South,9.2,18.4,N/A,,Scattered Clouds,170,2012-12-01 14:13:00
8:33 AM,33.8,30.2,87,29.76,2.5,South,6.9,-,N/A,,Scattered Clouds,170,2012-12-01 14:33:00
8:53 AM,33.8,30.2,87,29.75,2.5,South,8.1,18.4,N/A,,Scattered Clouds,170,2012-12-01 14:53:00
9:13 AM,33.8,30.2,87,29.75,2.5,South,6.9,-,N/A,,Mostly Cloudy,170,2012-12-01 15:13:00
9:33 AM,33.8,30.2,87,29.75,2.0,South,6.9,-,N/A,,Mostly Cloudy,170,2012-12-01 15:33:00
9:53 AM,33.8,30.2,87,29.75,2.0,South,9.2,16.1,N/A,,Mostly Cloudy,170,2012-12-01 15:53:00
10:13 AM,33.8,30.2,87,29.75,1.8,South,4.6,-,N/A,,Overcast,170,2012-12-01 16:13:00
10:34 AM,33.8,30.2,87,29.74,1.5,SSE,8.1,-,N/A,,Overcast,160,2012-12-01 16:34:00
10:53 AM,33.8,30.2,87,29.74,1.2,SSE,8.1,16.1,N/A,,Overcast,160,2012-12-01 16:53:00
11:14 AM,33.8,30.2,87,29.72,1.0,SSE,3.5,-,N/A,,Overcast,160,2012-12-01 17:14:00
11:33 AM,33.8,30.2,87,29.72,1.0,SSE,5.8,-,N/A,,Overcast,160,2012-12-01 17:33:00
11:54 AM,33.8,30.2,87,29.71,1.0,SSE,6.9,-,N/A,,Overcast,160,2012-12-01 17:54:00
12:13 PM,33.8,30.2,87,29.71,1.0,SSE,4.6,-,N/A,,Overcast,160,2012-12-01 18:13:00
12:33 PM,33.8,30.2,87,29.70,1.0,Calm,Calm,-,N/A,,Overcast,0,2012-12-01 18:33:00
12:53 PM,33.8,30.2,87,29.70,1.2,SSE,4.6,-,N/A,,Overcast,150,2012-12-01 18:53:00
1:13 PM,33.8,30.2,87,29.69,1.0,Calm,Calm,-,N/A,,Overcast,0,2012-12-01 19:13:00
1:34 PM,33.8,32.0,93,29.68,1.0,Calm,Calm,-,N/A,,Overcast,0,2012-12-01 19:34:00
1:53 PM,33.8,32.0,93,29.68,1.0,SSE,3.5,-,N/A,,Overcast,160,2012-12-01 19:53:00
2:13 PM,33.8,32.0,93,29.68,1.0,Calm,Calm,-,N/A,,Overcast,0,2012-12-01 20:13:00
2:33 PM,33.8,32.0,93,29.68,1.0,Calm,Calm,-,N/A,,Overcast,0,2012-12-01 20:33:00
2:53 PM,33.8,32.0,93,29.68,0.8,Calm,Calm,-,N/A,,Overcast,0,2012-12-01 20:53:00
3:13 PM,33.8,32.0,93,29.69,0.5,Calm,Calm,-,N/A,Fog,Fog,0,2012-12-01 21:13:00
3:34 PM,33.8,32.0,93,29.69,0.8,Calm,Calm,-,N/A,,Overcast,0,2012-12-01 21:34:00
3:53 PM,33.8,32.0,93,29.69,0.5,Calm,Calm,-,N/A,Fog,Fog,0,2012-12-01 21:53:00
4:13 PM,33.8,32.0,93,29.70,0.2,Calm,Calm,-,N/A,Fog,Fog,0,2012-12-01 22:13:00
4:33 PM,33.8,32.0,93,29.71,0.5,Calm,Calm,-,N/A,Fog,Fog,0,2012-12-01 22:33:00
4:53 PM,33.8,32.0,93,29.71,0.5,Calm,Calm,-,N/A,Fog,Fog,0,2012-12-01 22:53:00
5:13 PM,33.8,32.0,93,29.72,0.8,Calm,Calm,-,N/A,,Overcast,0,2012-12-01 23:13:00
5:33 PM,33.8,30.2,87,29.71,0.5,Calm,Calm,-,N/A,Fog,Fog,0,2012-12-01 23:33:00
5:54 PM,33.8,30.2,87,29.72,0.5,Calm,Calm,-,N/A,Fog,Fog,0,2012-12-01 23:54:00
6:13 PM,33.8,30.2,87,29.73,0.2,Calm,Calm,-,N/A,Fog,Fog,0,2012-12-02 00:13:00
6:33 PM,33.8,30.2,87,29.73,0.5,Calm,Calm,-,N/A,Fog,Fog,0,2012-12-02 00:33:00
6:53 PM,33.8,30.2,87,29.73,0.8,Calm,Calm,-,N/A,,Overcast,0,2012-12-02 00:53:00
7:14 PM,33.8,30.2,87,29.72,0.8,Calm,Calm,-,N/A,,Overcast,0,2012-12-02 01:14:00
7:34 PM,32.0,30.2,93,29.72,0.5,Calm,Calm,-,N/A,Fog,Fog,0,2012-12-02 01:34:00
7:53 PM,32.0,30.2,93,29.73,0.5,Calm,Calm,-,N/A,Fog,Fog,0,2012-12-02 01:53:00
8:13 PM,33.8,30.2,87,29.73,0.5,Calm,Calm,-,N/A,Fog,Fog,0,2012-12-02 02:13:00
8:33 PM,33.8,30.2,87,29.74,0.5,Calm,Calm,-,N/A,Fog,Fog,0,2012-12-02 02:33:00
8:53 PM,33.8,30.2,87,29.74,0.5,Calm,Calm,-,N/A,Fog,Fog,0,2012-12-02 02:53:00
9:33 PM,33.8,32.0,93,29.76,0.5,Calm,Calm,-,N/A,Fog,Fog,0,2012-12-02 03:33:00
9:53 PM,33.8,32.0,93,29.76,0.5,Calm,Calm,-,N/A,Fog,Fog,0,2012-12-02 03:53:00
10:13 PM,33.8,32.0,93,29.77,0.8,Calm,Calm,-,N/A,,Overcast,0,2012-12-02 04:13:00
10:33 PM,33.8,32.0,93,29.77,1.0,Calm,Calm,-,N/A,,Overcast,0,2012-12-02 04:33:00
10:53 PM,33.8,32.0,93,29.77,1.5,Calm,Calm,-,N/A,,Mostly Cloudy,0,2012-12-02 04:53:00
11:13 PM,33.8,32.0,93,29.78,2.0,Calm,Calm,-,N/A,,Mist,0,2012-12-02 05:13:00
11:33 PM,33.8,30.2,87,29.78,1.5,Calm,Calm,-,N/A,,Mist,0,2012-12-02 05:33:00
11:53 PM,33.8,30.2,87,29.79,1.5,Calm,Calm,-,N/A,,Mist,0,2012-12-02 05:53:00